Weather History for Sydney, NW

Change the Weather History Date:

Wednesday, December 4, 2013

  Actual Average Record
Temperature  
Mean Temperature 72 °F -  
Max Temperature 82 °F 79 °F 98 °F (2002)
Min Temperature 63 °F 64 °F 57 °F (2006)
Cooling Degree Days 8    
Growing Degree Days 22 (Base 50)    
Moisture  
Dew Point 59 °F    
Average Humidity 56    
Maximum Humidity 83    
Minimum Humidity 30    
Precipitation  
Precipitation 0.00 in 0.11 in - ()
Sea Level Pressure  
Sea Level Pressure 29.62 in    
Wind  
Wind Speed 13 mph ()    
Max Wind Speed 31 mph    
Max Gust Speed -    
Visibility 15.0 miles    
Events      
Averages and records for this station are not official NWS values.
T = Trace of Precipitation, MM = Missing Value Source: Averaged Metar Reports

Daily Weather History Graph

Daily Weather History Graph

Search for Another Location

Airport:

Trip Planner

Search our weather history database for the weather conditions in past years. The results will help you decide how hot, cold, wet, or windy it might be!

Date:

Astronomy

Dec. 04, 2013 Rise Set
Actual Time 5:37 AM AEDT 7:54 PM AEDT
Civil Twilight 5:08 AM AEDT 8:22 PM AEDT
Nautical Twilight 4:33 AM AEDT 8:58 PM AEDT
Astronomical Twilight 3:54 AM AEDT 9:36 PM AEDT
Moon 6:39 AM AEDT (12/4) 9:03 PM AEDT (12/4)
Length of Visible Light 15h 14m
Length of Day
14h 17m
New Moon, 2% of the Moon is Illuminated
Dec 4
New Moon
Dec 10
First Quarter
Dec 17
Full
Dec 26
Last Quarter
Jan 1
New

Hourly Weather History & Observations

Time (AEDT) Temp. Heat Index Dew Point Humidity Pressure Visibility Wind Dir Wind Speed Gust Speed Precip Events Conditions
12:00 AM 69 °F - 60 °F 66% 29.86 in 16 mi NNE 15.0 mph - -   Haze
12:00 AM 69.8 °F - 60.8 °F 73% 29.86 in - NNE 15.0 mph - N/A   Clear
12:30 AM 68.0 °F - 60.8 °F 78% 29.83 in - NNE 16.1 mph - N/A   Clear
1:00 AM 69 °F - 60 °F 64% 29.84 in - NNE 13.8 mph - -  
1:00 AM 68.0 °F - 59.0 °F 73% 29.83 in - NNE 13.8 mph - N/A   Clear
1:30 AM 68.0 °F - 59.0 °F 73% 29.80 in - NNE 12.7 mph - N/A   Clear
2:00 AM 68 °F - 59 °F 67% 29.81 in - North 12.7 mph - -  
2:00 AM 68.0 °F - 59.0 °F 73% 29.80 in - North 12.7 mph - N/A   Clear
2:30 AM 66.2 °F - 59.0 °F 78% 29.80 in - North 10.4 mph - N/A   Clear
3:00 AM 66 °F - 59 °F 72% 29.80 in 16 mi North 8.1 mph - -   Haze
3:00 AM 66.2 °F - 59.0 °F 78% 29.80 in - North 8.1 mph - N/A   Clear
3:30 AM 66.2 °F - 59.0 °F 78% 29.77 in - NNW 8.1 mph - N/A   Clear
4:00 AM 65 °F - 59 °F 75% 29.78 in - NNW 6.9 mph - -  
4:00 AM 64.4 °F - 59.0 °F 83% 29.77 in - NNW 6.9 mph - N/A   Clear
4:30 AM 64.4 °F - 59.0 °F 83% 29.77 in - NNW 8.1 mph - N/A   Clear
5:00 AM 66 °F - 58 °F 68% 29.76 in - NNE 8.1 mph - -  
5:00 AM 66.2 °F - 57.2 °F 73% 29.74 in - NNE 8.1 mph - N/A   Clear
5:30 AM 66.2 °F - 57.2 °F 73% 29.74 in - NNE 4.6 mph - N/A   Clear
6:00 AM 66 °F - 57 °F 65% 29.75 in 16 mi NNE 9.2 mph - -   Haze
6:30 AM 68.0 °F - 57.2 °F 68% 29.74 in - North 11.5 mph - N/A   Clear
7:00 AM 68 °F - 58 °F 61% 29.75 in - NNW 6.9 mph - -  
7:00 AM 68.0 °F - 57.2 °F 68% 29.74 in - NNW 6.9 mph - N/A   Clear
7:30 AM 69.8 °F - 57.2 °F 64% 29.71 in - NNE 6.9 mph - N/A   Clear
8:00 AM 69 °F - 58 °F 59% 29.75 in - North 6.9 mph - -  
8:00 AM 68.0 °F - 57.2 °F 68% 29.74 in - North 6.9 mph - N/A   Clear
8:30 AM 73.4 °F - 59.0 °F 61% 29.74 in - NNW 6.9 mph - N/A   Clear
9:00 AM 75 °F - 56 °F 42% 29.71 in 16 mi NNE 8.1 mph - -   Partly Cloudy
9:00 AM 75.2 °F - 57.2 °F 53% 29.71 in - NNE 8.1 mph - N/A   Clear
9:30 AM 78.8 °F - 57.2 °F 47% 29.68 in - NNE 6.9 mph - N/A   Clear
10:00 AM 78 °F - 58 °F 39% 29.70 in - NE 3.5 mph - -  
10:00 AM 77.0 °F - 57.2 °F 50% 29.68 in - NE 3.5 mph - N/A   Clear
10:30 AM 78.8 °F - 59.0 °F 51% 29.68 in - NE 5.8 mph - N/A   Clear
11:00 AM 80 °F - 58 °F 37% 29.68 in - NE 8.1 mph - -  
11:00 AM 80.6 °F 81.1 °F 59.0 °F 48% 29.65 in - NE 8.1 mph - N/A   Clear
11:30 AM 80.6 °F 81.1 °F 59.0 °F 48% 29.65 in - NNE 10.4 mph - N/A   Clear
12:00 PM 80 °F - 59 °F 39% 29.64 in 16 mi NE 10.4 mph - -   Partly Cloudy
12:00 PM 80.6 °F 81.1 °F 59.0 °F 48% 29.62 in - NE 10.4 mph - N/A   Clear
12:30 PM 82.4 °F 82.5 °F 59.0 °F 45% 29.62 in - NNE 10.4 mph - N/A   Clear
1:00 PM 82 °F - 59 °F 36% 29.62 in - NNE 10.4 mph - -  
1:00 PM 82.4 °F 82.5 °F 59.0 °F 45% 29.59 in - NNE 10.4 mph - N/A   Clear
1:30 PM 82.4 °F 82.9 °F 60.8 °F 48% 29.59 in - NE 15.0 mph - N/A   Clear
2:00 PM 82 °F - 61 °F 38% 29.57 in - NNE 15.0 mph - -  
2:00 PM 82.4 °F 82.9 °F 60.8 °F 48% 29.56 in - NNE 15.0 mph - N/A   Clear
2:30 PM 80.6 °F 81.5 °F 60.8 °F 51% 29.56 in - NE 13.8 mph - N/A   Clear
3:00 PM 80 °F - 61 °F 42% 29.55 in 16 mi NE 19.6 mph - -   Partly Cloudy
3:00 PM 80.6 °F 81.5 °F 60.8 °F 51% 29.53 in - NE 19.6 mph - N/A   Clear
3:30 PM 80.6 °F 81.5 °F 60.8 °F 51% 29.53 in - NE 23.0 mph - N/A   Clear
4:00 PM 78 °F - 62 °F 48% 29.52 in - NE 20.7 mph - -  
4:00 PM 78.8 °F - 62.6 °F 57% 29.50 in - NE 20.7 mph - N/A   Clear
4:30 PM 78.8 °F - 62.6 °F 57% 29.50 in - NE 23.0 mph - N/A   Clear
5:00 PM 82 °F - 63 °F 43% 29.48 in - NE 25.3 mph - -  
5:00 PM 82.4 °F 83.4 °F 62.6 °F 51% 29.47 in - NE 25.3 mph - N/A   Clear
5:30 PM 82.4 °F 82.9 °F 60.8 °F 48% 29.44 in - NE 25.3 mph - N/A   Clear
6:00 PM 81 °F - 62 °F 43% 29.45 in 12 mi NE 23.0 mph - -   Haze
6:00 PM 80.6 °F 81.8 °F 62.6 °F 54% 29.44 in - NE 23.0 mph - N/A   Clear
6:30 PM 82.4 °F 82.5 °F 59.0 °F 45% 29.44 in - NE 27.6 mph - N/A   Clear
7:00 PM 82 °F - 55 °F 30% 29.44 in - NNE 31.1 mph - -  
7:00 PM 82.4 °F 81.7 °F 55.4 °F 39% 29.42 in - NNE 31.1 mph - N/A   Clear
7:30 PM 80.6 °F 80.5 °F 55.4 °F 42% 29.44 in - NNE 31.1 mph - N/A   Clear
8:00 PM 80 °F - 60 °F 40% 29.44 in - NNE 24.2 mph - -  
8:00 PM 78.8 °F - 59.0 °F 51% 29.44 in - NNE 24.2 mph - N/A   Clear
8:30 PM 78.8 °F - 62.6 °F 57% 29.42 in - NE 21.9 mph - N/A   Clear
9:00 PM 77 °F - 63 °F 52% 29.44 in 12 mi NNE 21.9 mph - -   Haze
9:00 PM 77.0 °F - 62.6 °F 61% 29.44 in - NNE 21.9 mph - N/A   Clear
9:30 PM 78.8 °F - 62.6 °F 57% 29.42 in - NE 18.4 mph - N/A   Clear
10:00 PM 80 °F - 59 °F 38% 29.43 in - NNE 20.7 mph - -  
10:00 PM 80.6 °F 81.1 °F 59.0 °F 48% 29.42 in - NNE 20.7 mph - N/A   Clear
10:30 PM 78.8 °F - 60.8 °F 54% 29.42 in - NNE 21.9 mph - N/A   Clear
11:00 PM 76 °F - 62 °F 54% 29.42 in - NNE 19.6 mph - -  
11:00 PM 77.0 °F - 62.6 °F 61% 29.42 in - NNE 19.6 mph - N/A   Clear
11:30 PM 75.2 °F - 62.6 °F 65% 29.39 in - NNE 19.6 mph - N/A   Clear